owner,sensor,date,latitude,longitude,vertical_datum,sea_water_practical_salinity,qcFlag 
ENP,ioos.station.NOAA.NDBC:LBRF1:1,2012-12-01T00:00:00Z,25.4840,-81.1330,1.5,3.6,11111222 
ENP,ioos.station.NOAA.NDBC:LBRF1:1,2012-12-01T01:00:00Z,25.4840,-81.1330,1.5,2.6,11111222 
ENP,ioos.station.NOAA.NDBC:LBRF1:1,2012-12-01T02:00:00Z,25.4840,-81.1330,1.5,2.2,11111222 
ENP,ioos.station.NOAA.NDBC:LBRF1:1,2012-12-01T03:00:00Z,25.4840,-81.1330,1.5,2.0,11111222 
ENP,ioos.station.NOAA.NDBC:LBRF1:1,2012-12-01T04:00:00Z,25.4840,-81.1330,1.5,1.9,11111222 
ENP,ioos.station.NOAA.NDBC:LBRF1:1,2012-12-01T05:00:00Z,25.4840,-81.1330,1.5,2.7,11111222 
ENP,ioos.station.NOAA.NDBC:LBRF1:1,2012-12-01T06:00:00Z,25.4840,-81.1330,1.5,9.5,11111222 
ENP,ioos.station.NOAA.NDBC:LBRF1:1,2012-12-01T07:00:00Z,25.4840,-81.1330,1.5,10.8,11111222 
ENP,ioos.station.NOAA.NDBC:LBRF1:1,2012-12-01T08:00:00Z,25.4840,-81.1330,1.5,3.8,11111222 
ENP,ioos.station.NOAA.NDBC:LBRF1:1,2012-12-01T09:00:00Z,25.4840,-81.1330,1.5,21.2,11111222 
ENP,ioos.station.NOAA.NDBC:LBRF1:1,2012-12-01T10:00:00Z,25.4840,-81.1330,1.5,21.7,11111222 
ENP,ioos.station.NOAA.NDBC:LBRF1:1,2012-12-01T11:00:00Z,25.4840,-81.1330,1.5,16.1,11111222 
ENP,ioos.station.NOAA.NDBC:LBRF1:1,2012-12-01T12:00:00Z,25.4840,-81.1330,1.5,11.4,11111222 
ENP,ioos.station.NOAA.NDBC:LBRF1:1,2012-12-01T13:00:00Z,25.4840,-81.1330,1.5,7.1,11111222 
ENP,ioos.station.NOAA.NDBC:LBRF1:1,2012-12-01T14:00:00Z,25.4840,-81.1330,1.5,3.6,11111222 
ENP,ioos.station.NOAA.NDBC:LBRF1:1,2012-12-01T15:00:00Z,25.4840,-81.1330,1.5,2.0,11111222 
ENP,ioos.station.NOAA.NDBC:LBRF1:1,2012-12-01T16:00:00Z,25.4840,-81.1330,1.5,1.8,11111222 
ENP,ioos.station.NOAA.NDBC:LBRF1:1,2012-12-01T17:00:00Z,25.4840,-81.1330,1.5,1.6,11111222 
ENP,ioos.station.NOAA.NDBC:LBRF1:1,2012-12-01T18:00:00Z,25.4840,-81.1330,1.5,1.6,11111222 
ENP,ioos.station.NOAA.NDBC:LBRF1:1,2012-12-01T19:00:00Z,25.4840,-81.1330,1.5,1.9,11111222 
ENP,ioos.station.NOAA.NDBC:LBRF1:1,2012-12-01T20:00:00Z,25.4840,-81.1330,1.5,4.9,11111222 
ENP,ioos.station.NOAA.NDBC:LBRF1:1,2012-12-01T21:00:00Z,25.4840,-81.1330,1.5,12.5,11111222 
ENP,ioos.station.NOAA.NDBC:LBRF1:1,2012-12-01T22:00:00Z,25.4840,-81.1330,1.5,16.2,11111222 
ENP,ioos.station.NOAA.NDBC:LBRF1:1,2012-12-01T23:00:00Z,25.4840,-81.1330,1.5,17.4,11111222 
ENP,ioos.station.NOAA.NDBC:LBRF1:1,2012-12-02T00:00:00Z,25.4840,-81.1330,1.5,13.0,11111222 
ENP,ioos.station.NOAA.NDBC:LBRF1:1,2012-12-02T01:00:00Z,25.4840,-81.1330,1.5,7.0,11111222 
ENP,ioos.station.NOAA.NDBC:LBRF1:1,2012-12-02T02:00:00Z,25.4840,-81.1330,1.5,3.1,11111222 
ENP,ioos.station.NOAA.NDBC:LBRF1:1,2012-12-02T03:00:00Z,25.4840,-81.1330,1.5,2.1,11111222 
ENP,ioos.station.NOAA.NDBC:LBRF1:1,2012-12-02T04:00:00Z,25.4840,-81.1330,1.5,1.9,11111222 
ENP,ioos.station.NOAA.NDBC:LBRF1:1,2012-12-02T05:00:00Z,25.4840,-81.1330,1.5,1.8,11111222 
ENP,ioos.station.NOAA.NDBC:LBRF1:1,2012-12-02T06:00:00Z,25.4840,-81.1330,1.5,9.8,11111222 
ENP,ioos.station.NOAA.NDBC:LBRF1:1,2012-12-02T07:00:00Z,25.4840,-81.1330,1.5,12.6,11111222 
ENP,ioos.station.NOAA.NDBC:LBRF1:1,2012-12-02T08:00:00Z,25.4840,-81.1330,1.5,16.8,11111222 
ENP,ioos.station.NOAA.NDBC:LBRF1:1,2012-12-02T09:00:00Z,25.4840,-81.1330,1.5,20.0,11111222 
ENP,ioos.station.NOAA.NDBC:LBRF1:1,2012-12-02T10:00:00Z,25.4840,-81.1330,1.5,21.2,11111222 
ENP,ioos.station.NOAA.NDBC:LBRF1:1,2012-12-02T11:00:00Z,25.4840,-81.1330,1.5,19.5,11111222 
ENP,ioos.station.NOAA.NDBC:LBRF1:1,2012-12-02T12:00:00Z,25.4840,-81.1330,1.5,14.7,11111222 
ENP,ioos.station.NOAA.NDBC:LBRF1:1,2012-12-02T13:00:00Z,25.4840,-81.1330,1.5,11.9,11111222 
ENP,ioos.station.NOAA.NDBC:LBRF1:1,2012-12-02T14:00:00Z,25.4840,-81.1330,1.5,7.5,11111222 
ENP,ioos.station.NOAA.NDBC:LBRF1:1,2012-12-02T15:00:00Z,25.4840,-81.1330,1.5,1.0,11111222 
ENP,ioos.station.NOAA.NDBC:LBRF1:1,2012-12-02T16:00:00Z,25.4840,-81.1330,1.5,1.9,11111222 
ENP,ioos.station.NOAA.NDBC:LBRF1:1,2012-12-02T17:00:00Z,25.4840,-81.1330,1.5,1.7,11111222 
ENP,ioos.station.NOAA.NDBC:LBRF1:1,2012-12-02T18:00:00Z,25.4840,-81.1330,1.5,1.5,11111222 
ENP,ioos.station.NOAA.NDBC:LBRF1:1,2012-12-02T19:00:00Z,25.4840,-81.1330,1.5,1.6,11111222 
ENP,ioos.station.NOAA.NDBC:LBRF1:1,2012-12-02T20:00:00Z,25.4840,-81.1330,1.5,2.1,11111222 
ENP,ioos.station.NOAA.NDBC:LBRF1:1,2012-12-02T21:00:00Z,25.4840,-81.1330,1.5,6.9,11111222 
ENP,ioos.station.NOAA.NDBC:LBRF1:1,2012-12-02T22:00:00Z,25.4840,-81.1330,1.5,13.8,11111222 
ENP,ioos.station.NOAA.NDBC:LBRF1:1,2012-12-02T23:00:00Z,25.4840,-81.1330,1.5,16.9,11111222 
ENP,ioos.station.NOAA.NDBC:LBRF1:1,2012-12-03T00:00:00Z,25.4840,-81.1330,1.5,17.2,11111222 
ENP,ioos.station.NOAA.NDBC:LBRF1:1,2012-12-03T01:00:00Z,25.4840,-81.1330,1.5,12.8,11111222 
ENP,ioos.station.NOAA.NDBC:LBRF1:1,2012-12-03T02:00:00Z,25.4840,-81.1330,1.5,6.1,11111222 
ENP,ioos.station.NOAA.NDBC:LBRF1:1,2012-12-03T03:00:00Z,25.4840,-81.1330,1.5,2.6,11111222 
ENP,ioos.station.NOAA.NDBC:LBRF1:1,2012-12-03T04:00:00Z,25.4840,-81.1330,1.5,2.0,11111222 
ENP,ioos.station.NOAA.NDBC:LBRF1:1,2012-12-03T05:00:00Z,25.4840,-81.1330,1.5,1.8,11111222 
ENP,ioos.station.NOAA.NDBC:LBRF1:1,2012-12-03T06:00:00Z,25.4840,-81.1330,1.5,1.8,11111222 
ENP,ioos.station.NOAA.NDBC:LBRF1:1,2012-12-03T07:00:00Z,25.4840,-81.1330,1.5,11.5,11111222 
ENP,ioos.station.NOAA.NDBC:LBRF1:1,2012-12-03T08:00:00Z,25.4840,-81.1330,1.5,13.3,11111222 
ENP,ioos.station.NOAA.NDBC:LBRF1:1,2012-12-03T09:00:00Z,25.4840,-81.1330,1.5,17.1,11111222 
ENP,ioos.station.NOAA.NDBC:LBRF1:1,2012-12-03T11:00:00Z,25.4840,-81.1330,1.5,20.7,11111222 
ENP,ioos.station.NOAA.NDBC:LBRF1:1,2012-12-03T12:00:00Z,25.4840,-81.1330,1.5,15.7,11111222 
ENP,ioos.station.NOAA.NDBC:LBRF1:1,2012-12-03T13:00:00Z,25.4840,-81.1330,1.5,12.2,11111222 
ENP,ioos.station.NOAA.NDBC:LBRF1:1,2012-12-03T14:00:00Z,25.4840,-81.1330,1.5,9.2,11111222 
ENP,ioos.station.NOAA.NDBC:LBRF1:1,2012-12-03T15:00:00Z,25.4840,-81.1330,1.5,3.5,11111222 
ENP,ioos.station.NOAA.NDBC:LBRF1:1,2012-12-03T16:00:00Z,25.4840,-81.1330,1.5,1.8,11111222 
ENP,ioos.station.NOAA.NDBC:LBRF1:1,2012-12-03T17:00:00Z,25.4840,-81.1330,1.5,1.7,11111222 
ENP,ioos.station.NOAA.NDBC:LBRF1:1,2012-12-03T18:00:00Z,25.4840,-81.1330,1.5,1.5,11111222 
ENP,ioos.station.NOAA.NDBC:LBRF1:1,2012-12-03T19:00:00Z,25.4840,-81.1330,1.5,1.5,11111222 
ENP,ioos.station.NOAA.NDBC:LBRF1:1,2012-12-03T20:00:00Z,25.4840,-81.1330,1.5,1.6,11111222 
ENP,ioos.station.NOAA.NDBC:LBRF1:1,2012-12-03T21:00:00Z,25.4840,-81.1330,1.5,3.1,11111222 
ENP,ioos.station.NOAA.NDBC:LBRF1:1,2012-12-03T22:00:00Z,25.4840,-81.1330,1.5,10.1,11111222 
ENP,ioos.station.NOAA.NDBC:LBRF1:1,2012-12-03T23:00:00Z,25.4840,-81.1330,1.5,16.0,11111222 
ENP,ioos.station.NOAA.NDBC:LBRF1:1,2012-12-04T00:00:00Z,25.4840,-81.1330,1.5,19.1,11111222 
ENP,ioos.station.NOAA.NDBC:LBRF1:1,2012-12-04T01:00:00Z,25.4840,-81.1330,1.5,17.9,11111222 
ENP,ioos.station.NOAA.NDBC:LBRF1:1,2012-12-04T02:00:00Z,25.4840,-81.1330,1.5,9.2,11111222 
ENP,ioos.station.NOAA.NDBC:LBRF1:1,2012-12-04T03:00:00Z,25.4840,-81.1330,1.5,4.8,11111222 
ENP,ioos.station.NOAA.NDBC:LBRF1:1,2012-12-04T04:00:00Z,25.4840,-81.1330,1.5,2.2,11111222 
ENP,ioos.station.NOAA.NDBC:LBRF1:1,2012-12-04T05:00:00Z,25.4840,-81.1330,1.5,1.8,11111222 
ENP,ioos.station.NOAA.NDBC:LBRF1:1,2012-12-04T06:00:00Z,25.4840,-81.1330,1.5,1.7,11111222 
ENP,ioos.station.NOAA.NDBC:LBRF1:1,2012-12-04T07:00:00Z,25.4840,-81.1330,1.5,6.6,11111222 
ENP,ioos.station.NOAA.NDBC:LBRF1:1,2012-12-04T08:00:00Z,25.4840,-81.1330,1.5,13.4,11111222 
ENP,ioos.station.NOAA.NDBC:LBRF1:1,2012-12-04T09:00:00Z,25.4840,-81.1330,1.5,14.3,11111222 
ENP,ioos.station.NOAA.NDBC:LBRF1:1,2012-12-04T10:00:00Z,25.4840,-81.1330,1.5,17.9,11111222 
ENP,ioos.station.NOAA.NDBC:LBRF1:1,2012-12-04T11:00:00Z,25.4840,-81.1330,1.5,19.9,11111222 
ENP,ioos.station.NOAA.NDBC:LBRF1:1,2012-12-04T12:00:00Z,25.4840,-81.1330,1.5,20.7,11111222 
ENP,ioos.station.NOAA.NDBC:LBRF1:1,2012-12-04T13:00:00Z,25.4840,-81.1330,1.5,15.7,11111222 
ENP,ioos.station.NOAA.NDBC:LBRF1:1,2012-12-04T14:00:00Z,25.4840,-81.1330,1.5,12.7,11111222 
ENP,ioos.station.NOAA.NDBC:LBRF1:1,2012-12-04T15:00:00Z,25.4840,-81.1330,1.5,9.7,11111222 
ENP,ioos.station.NOAA.NDBC:LBRF1:1,2012-12-04T16:00:00Z,25.4840,-81.1330,1.5,4.1,11111222 
ENP,ioos.station.NOAA.NDBC:LBRF1:1,2012-12-04T17:00:00Z,25.4840,-81.1330,1.5,1.8,11111222 
ENP,ioos.station.NOAA.NDBC:LBRF1:1,2012-12-04T18:00:00Z,25.4840,-81.1330,1.5,1.7,11111222 
ENP,ioos.station.NOAA.NDBC:LBRF1:1,2012-12-04T19:00:00Z,25.4840,-81.1330,1.5,1.5,11111222 
ENP,ioos.station.NOAA.NDBC:LBRF1:1,2012-12-04T20:00:00Z,25.4840,-81.1330,1.5,1.6,11111222 
ENP,ioos.station.NOAA.NDBC:LBRF1:1,2012-12-04T21:00:00Z,25.4840,-81.1330,1.5,2.0,11111222 
ENP,ioos.station.NOAA.NDBC:LBRF1:1,2012-12-04T22:00:00Z,25.4840,-81.1330,1.5,8.1,11111222 
ENP,ioos.station.NOAA.NDBC:LBRF1:1,2012-12-04T23:00:00Z,25.4840,-81.1330,1.5,14.2,11111222 
ENP,ioos.station.NOAA.NDBC:LBRF1:1,2012-12-05T00:00:00Z,25.4840,-81.1330,1.5,16.9,11111222 
ENP,ioos.station.NOAA.NDBC:LBRF1:1,2012-12-05T01:00:00Z,25.4840,-81.1330,1.5,18.0,11111222 
ENP,ioos.station.NOAA.NDBC:LBRF1:1,2012-12-05T02:00:00Z,25.4840,-81.1330,1.5,15.8,11111222 
ENP,ioos.station.NOAA.NDBC:LBRF1:1,2012-12-05T03:00:00Z,25.4840,-81.1330,1.5,10.0,11111222 
ENP,ioos.station.NOAA.NDBC:LBRF1:1,2012-12-05T04:00:00Z,25.4840,-81.1330,1.5,5.6,11111222 
ENP,ioos.station.NOAA.NDBC:LBRF1:1,2012-12-05T05:00:00Z,25.4840,-81.1330,1.5,2.3,11111222 
ENP,ioos.station.NOAA.NDBC:LBRF1:1,2012-12-05T06:00:00Z,25.4840,-81.1330,1.5,1.8,11111222 
ENP,ioos.station.NOAA.NDBC:LBRF1:1,2012-12-05T07:00:00Z,25.4840,-81.1330,1.5,1.7,11111222 
ENP,ioos.station.NOAA.NDBC:LBRF1:1,2012-12-05T08:00:00Z,25.4840,-81.1330,1.5,1.7,11111222 
ENP,ioos.station.NOAA.NDBC:LBRF1:1,2012-12-05T09:00:00Z,25.4840,-81.1330,1.5,9.5,11111222 
ENP,ioos.station.NOAA.NDBC:LBRF1:1,2012-12-05T10:00:00Z,25.4840,-81.1330,1.5,12.7,11111222 
ENP,ioos.station.NOAA.NDBC:LBRF1:1,2012-12-05T11:00:00Z,25.4840,-81.1330,1.5,15.2,11111222 
ENP,ioos.station.NOAA.NDBC:LBRF1:1,2012-12-05T12:00:00Z,25.4840,-81.1330,1.5,17.7,11111222 
ENP,ioos.station.NOAA.NDBC:LBRF1:1,2012-12-05T13:00:00Z,25.4840,-81.1330,1.5,17.0,11111222 
ENP,ioos.station.NOAA.NDBC:LBRF1:1,2012-12-05T14:00:00Z,25.4840,-81.1330,1.5,11.6,11111222 
ENP,ioos.station.NOAA.NDBC:LBRF1:1,2012-12-05T15:00:00Z,25.4840,-81.1330,1.5,7.9,11111222 
ENP,ioos.station.NOAA.NDBC:LBRF1:1,2012-12-05T16:00:00Z,25.4840,-81.1330,1.5,2.7,11111222 
ENP,ioos.station.NOAA.NDBC:LBRF1:1,2012-12-05T17:00:00Z,25.4840,-81.1330,1.5,1.8,11111222 
ENP,ioos.station.NOAA.NDBC:LBRF1:1,2012-12-05T18:00:00Z,25.4840,-81.1330,1.5,1.5,11111222 
ENP,ioos.station.NOAA.NDBC:LBRF1:1,2012-12-05T19:00:00Z,25.4840,-81.1330,1.5,1.4,11111222 
ENP,ioos.station.NOAA.NDBC:LBRF1:1,2012-12-05T20:00:00Z,25.4840,-81.1330,1.5,1.4,11111222 
ENP,ioos.station.NOAA.NDBC:LBRF1:1,2012-12-05T21:00:00Z,25.4840,-81.1330,1.5,1.5,11111222 
ENP,ioos.station.NOAA.NDBC:LBRF1:1,2012-12-06T00:00:00Z,25.4840,-81.1330,1.5,16.7,11111222 
ENP,ioos.station.NOAA.NDBC:LBRF1:1,2012-12-06T01:00:00Z,25.4840,-81.1330,1.5,20.1,11111222 
ENP,ioos.station.NOAA.NDBC:LBRF1:1,2012-12-06T02:00:00Z,25.4840,-81.1330,1.5,20.6,11111222 
ENP,ioos.station.NOAA.NDBC:LBRF1:1,2012-12-06T03:00:00Z,25.4840,-81.1330,1.5,17.5,11111222 
ENP,ioos.station.NOAA.NDBC:LBRF1:1,2012-12-06T04:00:00Z,25.4840,-81.1330,1.5,11.4,11111222 
ENP,ioos.station.NOAA.NDBC:LBRF1:1,2012-12-06T05:00:00Z,25.4840,-81.1330,1.5,7.0,11111222 
ENP,ioos.station.NOAA.NDBC:LBRF1:1,2012-12-06T06:00:00Z,25.4840,-81.1330,1.5,3.6,11111222 
ENP,ioos.station.NOAA.NDBC:LBRF1:1,2012-12-06T07:00:00Z,25.4840,-81.1330,1.5,2.0,11111222 
ENP,ioos.station.NOAA.NDBC:LBRF1:1,2012-12-06T08:00:00Z,25.4840,-81.1330,1.5,1.8,11111222 
ENP,ioos.station.NOAA.NDBC:LBRF1:1,2012-12-06T09:00:00Z,25.4840,-81.1330,1.5,1.9,11111222 
ENP,ioos.station.NOAA.NDBC:LBRF1:1,2012-12-06T10:00:00Z,25.4840,-81.1330,1.5,12.2,11111222 
ENP,ioos.station.NOAA.NDBC:LBRF1:1,2012-12-06T11:00:00Z,25.4840,-81.1330,1.5,14.3,11111222 
ENP,ioos.station.NOAA.NDBC:LBRF1:1,2012-12-06T12:00:00Z,25.4840,-81.1330,1.5,16.1,11111222 
ENP,ioos.station.NOAA.NDBC:LBRF1:1,2012-12-06T13:00:00Z,25.4840,-81.1330,1.5,18.4,11111222 
ENP,ioos.station.NOAA.NDBC:LBRF1:1,2012-12-06T14:00:00Z,25.4840,-81.1330,1.5,18.2,11111222 
ENP,ioos.station.NOAA.NDBC:LBRF1:1,2012-12-06T15:00:00Z,25.4840,-81.1330,1.5,13.3,11111222 
ENP,ioos.station.NOAA.NDBC:LBRF1:1,2012-12-06T16:00:00Z,25.4840,-81.1330,1.5,3.1,11111222 
ENP,ioos.station.NOAA.NDBC:LBRF1:1,2012-12-06T17:00:00Z,25.4840,-81.1330,1.5,4.4,11111222 
ENP,ioos.station.NOAA.NDBC:LBRF1:1,2012-12-06T18:00:00Z,25.4840,-81.1330,1.5,1.9,11111222 
ENP,ioos.station.NOAA.NDBC:LBRF1:1,2012-12-06T19:00:00Z,25.4840,-81.1330,1.5,1.6,11111222 
ENP,ioos.station.NOAA.NDBC:LBRF1:1,2012-12-06T20:00:00Z,25.4840,-81.1330,1.5,1.5,11111222 
ENP,ioos.station.NOAA.NDBC:LBRF1:1,2012-12-06T21:00:00Z,25.4840,-81.1330,1.5,1.5,11111222 
ENP,ioos.station.NOAA.NDBC:LBRF1:1,2012-12-06T22:00:00Z,25.4840,-81.1330,1.5,9.3,11111222 
ENP,ioos.station.NOAA.NDBC:LBRF1:1,2012-12-06T23:00:00Z,25.4840,-81.1330,1.5,11.7,11111222 
ENP,ioos.station.NOAA.NDBC:LBRF1:1,2012-12-07T00:00:00Z,25.4840,-81.1330,1.5,16.9,11111222 
ENP,ioos.station.NOAA.NDBC:LBRF1:1,2012-12-07T01:00:00Z,25.4840,-81.1330,1.5,21.8,11111222 
ENP,ioos.station.NOAA.NDBC:LBRF1:1,2012-12-07T02:00:00Z,25.4840,-81.1330,1.5,23.4,11111222 
ENP,ioos.station.NOAA.NDBC:LBRF1:1,2012-12-07T03:00:00Z,25.4840,-81.1330,1.5,23.7,11111222 
ENP,ioos.station.NOAA.NDBC:LBRF1:1,2012-12-07T04:00:00Z,25.4840,-81.1330,1.5,21.5,11111222 
ENP,ioos.station.NOAA.NDBC:LBRF1:1,2012-12-07T05:00:00Z,25.4840,-81.1330,1.5,17.8,11111222 
ENP,ioos.station.NOAA.NDBC:LBRF1:1,2012-12-07T06:00:00Z,25.4840,-81.1330,1.5,14.4,11111222 
ENP,ioos.station.NOAA.NDBC:LBRF1:1,2012-12-07T07:00:00Z,25.4840,-81.1330,1.5,9.4,11111222 
ENP,ioos.station.NOAA.NDBC:LBRF1:1,2012-12-07T08:00:00Z,25.4840,-81.1330,1.5,5.4,11111222 
ENP,ioos.station.NOAA.NDBC:LBRF1:1,2012-12-07T09:00:00Z,25.4840,-81.1330,1.5,3.3,11111222 
ENP,ioos.station.NOAA.NDBC:LBRF1:1,2012-12-07T10:00:00Z,25.4840,-81.1330,1.5,3.7,11111222 
ENP,ioos.station.NOAA.NDBC:LBRF1:1,2012-12-07T11:00:00Z,25.4840,-81.1330,1.5,8.2,11111222 
ENP,ioos.station.NOAA.NDBC:LBRF1:1,2012-12-07T12:00:00Z,25.4840,-81.1330,1.5,13.7,11111222 
ENP,ioos.station.NOAA.NDBC:LBRF1:1,2012-12-07T13:00:00Z,25.4840,-81.1330,1.5,17.0,11111222 
ENP,ioos.station.NOAA.NDBC:LBRF1:1,2012-12-07T14:00:00Z,25.4840,-81.1330,1.5,19.3,11111222 
ENP,ioos.station.NOAA.NDBC:LBRF1:1,2012-12-07T15:00:00Z,25.4840,-81.1330,1.5,20.8,11111222 
ENP,ioos.station.NOAA.NDBC:LBRF1:1,2012-12-07T16:00:00Z,25.4840,-81.1330,1.5,18.9,11111222 
ENP,ioos.station.NOAA.NDBC:LBRF1:1,2012-12-07T17:00:00Z,25.4840,-81.1330,1.5,14.1,11111222 
ENP,ioos.station.NOAA.NDBC:LBRF1:1,2012-12-07T18:00:00Z,25.4840,-81.1330,1.5,10.7,11111222 
ENP,ioos.station.NOAA.NDBC:LBRF1:1,2012-12-07T19:00:00Z,25.4840,-81.1330,1.5,5.1,11111222 
ENP,ioos.station.NOAA.NDBC:LBRF1:1,2012-12-07T20:00:00Z,25.4840,-81.1330,1.5,2.6,11111222 
ENP,ioos.station.NOAA.NDBC:LBRF1:1,2012-12-07T21:00:00Z,25.4840,-81.1330,1.5,2.0,11111222 
ENP,ioos.station.NOAA.NDBC:LBRF1:1,2012-12-07T22:00:00Z,25.4840,-81.1330,1.5,2.1,11111222 
ENP,ioos.station.NOAA.NDBC:LBRF1:1,2012-12-07T23:00:00Z,25.4840,-81.1330,1.5,10.2,11111222 
ENP,ioos.station.NOAA.NDBC:LBRF1:1,2012-12-08T00:00:00Z,25.4840,-81.1330,1.5,14.2,11111222 
ENP,ioos.station.NOAA.NDBC:LBRF1:1,2012-12-08T01:00:00Z,25.4840,-81.1330,1.5,18.7,11111222 
ENP,ioos.station.NOAA.NDBC:LBRF1:1,2012-12-08T02:00:00Z,25.4840,-81.1330,1.5,22.9,11111222 
ENP,ioos.station.NOAA.NDBC:LBRF1:1,2012-12-08T03:00:00Z,25.4840,-81.1330,1.5,24.2,11111222 
ENP,ioos.station.NOAA.NDBC:LBRF1:1,2012-12-08T06:00:00Z,25.4840,-81.1330,1.5,18.2,11111222 
ENP,ioos.station.NOAA.NDBC:LBRF1:1,2012-12-08T07:00:00Z,25.4840,-81.1330,1.5,14.5,11111222 
ENP,ioos.station.NOAA.NDBC:LBRF1:1,2012-12-08T08:00:00Z,25.4840,-81.1330,1.5,9.3,11111222 
ENP,ioos.station.NOAA.NDBC:LBRF1:1,2012-12-08T09:00:00Z,25.4840,-81.1330,1.5,4.3,11111222 
ENP,ioos.station.NOAA.NDBC:LBRF1:1,2012-12-08T10:00:00Z,25.4840,-81.1330,1.5,2.3,11111222 
ENP,ioos.station.NOAA.NDBC:LBRF1:1,2012-12-08T12:00:00Z,25.4840,-81.1330,1.5,2.1,11111222 
ENP,ioos.station.NOAA.NDBC:LBRF1:1,2012-12-08T13:00:00Z,25.4840,-81.1330,1.5,6.8,11111222 
ENP,ioos.station.NOAA.NDBC:LBRF1:1,2012-12-08T14:00:00Z,25.4840,-81.1330,1.5,11.8,11111222 
ENP,ioos.station.NOAA.NDBC:LBRF1:1,2012-12-08T15:00:00Z,25.4840,-81.1330,1.5,16.3,11111222 
ENP,ioos.station.NOAA.NDBC:LBRF1:1,2012-12-08T16:00:00Z,25.4840,-81.1330,1.5,19.2,11111222 
ENP,ioos.station.NOAA.NDBC:LBRF1:1,2012-12-08T17:00:00Z,25.4840,-81.1330,1.5,19.2,11111222 
ENP,ioos.station.NOAA.NDBC:LBRF1:1,2012-12-08T18:00:00Z,25.4840,-81.1330,1.5,14.5,11111222 
ENP,ioos.station.NOAA.NDBC:LBRF1:1,2012-12-08T19:00:00Z,25.4840,-81.1330,1.5,7.4,11111222 
ENP,ioos.station.NOAA.NDBC:LBRF1:1,2012-12-08T20:00:00Z,25.4840,-81.1330,1.5,3.2,11111222 
ENP,ioos.station.NOAA.NDBC:LBRF1:1,2012-12-08T21:00:00Z,25.4840,-81.1330,1.5,2.1,11111222 
ENP,ioos.station.NOAA.NDBC:LBRF1:1,2012-12-08T22:00:00Z,25.4840,-81.1330,1.5,1.8,11111222 
ENP,ioos.station.NOAA.NDBC:LBRF1:1,2012-12-08T23:00:00Z,25.4840,-81.1330,1.5,1.7,11111222 
ENP,ioos.station.NOAA.NDBC:LBRF1:1,2012-12-09T00:00:00Z,25.4840,-81.1330,1.5,12.5,11111222 
ENP,ioos.station.NOAA.NDBC:LBRF1:1,2012-12-09T01:00:00Z,25.4840,-81.1330,1.5,13.7,11111222 
ENP,ioos.station.NOAA.NDBC:LBRF1:1,2012-12-09T02:00:00Z,25.4840,-81.1330,1.5,19.0,11111222 
ENP,ioos.station.NOAA.NDBC:LBRF1:1,2012-12-09T03:00:00Z,25.4840,-81.1330,1.5,24.0,11111222 
ENP,ioos.station.NOAA.NDBC:LBRF1:1,2012-12-09T04:00:00Z,25.4840,-81.1330,1.5,25.2,11111222 
ENP,ioos.station.NOAA.NDBC:LBRF1:1,2012-12-09T05:00:00Z,25.4840,-81.1330,1.5,25.4,11111222 
ENP,ioos.station.NOAA.NDBC:LBRF1:1,2012-12-09T06:00:00Z,25.4840,-81.1330,1.5,24.2,11111222 
ENP,ioos.station.NOAA.NDBC:LBRF1:1,2012-12-09T07:00:00Z,25.4840,-81.1330,1.5,19.3,11111222 
ENP,ioos.station.NOAA.NDBC:LBRF1:1,2012-12-09T08:00:00Z,25.4840,-81.1330,1.5,15.2,11111222 
ENP,ioos.station.NOAA.NDBC:LBRF1:1,2012-12-09T09:00:00Z,25.4840,-81.1330,1.5,9.7,11111222 
ENP,ioos.station.NOAA.NDBC:LBRF1:1,2012-12-09T10:00:00Z,25.4840,-81.1330,1.5,4.9,11111222 
ENP,ioos.station.NOAA.NDBC:LBRF1:1,2012-12-09T11:00:00Z,25.4840,-81.1330,1.5,2.7,11111222 
ENP,ioos.station.NOAA.NDBC:LBRF1:1,2012-12-09T12:00:00Z,25.4840,-81.1330,1.5,2.2,11111222 
ENP,ioos.station.NOAA.NDBC:LBRF1:1,2012-12-09T13:00:00Z,25.4840,-81.1330,1.5,2.6,11111222 
ENP,ioos.station.NOAA.NDBC:LBRF1:1,2012-12-09T14:00:00Z,25.4840,-81.1330,1.5,7.0,11111222 
ENP,ioos.station.NOAA.NDBC:LBRF1:1,2012-12-09T15:00:00Z,25.4840,-81.1330,1.5,13.9,11111222 
ENP,ioos.station.NOAA.NDBC:LBRF1:1,2012-12-09T16:00:00Z,25.4840,-81.1330,1.5,19.7,11111222 
ENP,ioos.station.NOAA.NDBC:LBRF1:1,2012-12-09T17:00:00Z,25.4840,-81.1330,1.5,21.7,11111222 
ENP,ioos.station.NOAA.NDBC:LBRF1:1,2012-12-09T18:00:00Z,25.4840,-81.1330,1.5,22.3,11111222 
ENP,ioos.station.NOAA.NDBC:LBRF1:1,2012-12-09T19:00:00Z,25.4840,-81.1330,1.5,19.0,11111222 
ENP,ioos.station.NOAA.NDBC:LBRF1:1,2012-12-09T20:00:00Z,25.4840,-81.1330,1.5,14.2,11111222 
ENP,ioos.station.NOAA.NDBC:LBRF1:1,2012-12-09T21:00:00Z,25.4840,-81.1330,1.5,9.8,11111222 
ENP,ioos.station.NOAA.NDBC:LBRF1:1,2012-12-09T22:00:00Z,25.4840,-81.1330,1.5,4.9,11111222 
ENP,ioos.station.NOAA.NDBC:LBRF1:1,2012-12-09T23:00:00Z,25.4840,-81.1330,1.5,2.8,11111222 
ENP,ioos.station.NOAA.NDBC:LBRF1:1,2012-12-10T00:00:00Z,25.4840,-81.1330,1.5,3.1,11111222 
ENP,ioos.station.NOAA.NDBC:LBRF1:1,2012-12-10T01:00:00Z,25.4840,-81.1330,1.5,12.2,11111222 
ENP,ioos.station.NOAA.NDBC:LBRF1:1,2012-12-10T02:00:00Z,25.4840,-81.1330,1.5,16.4,11111222 
ENP,ioos.station.NOAA.NDBC:LBRF1:1,2012-12-10T03:00:00Z,25.4840,-81.1330,1.5,21.7,11111222 
ENP,ioos.station.NOAA.NDBC:LBRF1:1,2012-12-10T04:00:00Z,25.4840,-81.1330,1.5,25.1,11111222 
ENP,ioos.station.NOAA.NDBC:LBRF1:1,2012-12-10T05:00:00Z,25.4840,-81.1330,1.5,25.7,11111222 
ENP,ioos.station.NOAA.NDBC:LBRF1:1,2012-12-10T06:00:00Z,25.4840,-81.1330,1.5,25.6,11111222 
ENP,ioos.station.NOAA.NDBC:LBRF1:1,2012-12-10T07:00:00Z,25.4840,-81.1330,1.5,23.9,11111222 
ENP,ioos.station.NOAA.NDBC:LBRF1:1,2012-12-10T08:00:00Z,25.4840,-81.1330,1.5,19.9,11111222 
ENP,ioos.station.NOAA.NDBC:LBRF1:1,2012-12-10T09:00:00Z,25.4840,-81.1330,1.5,15.0,11111222 
ENP,ioos.station.NOAA.NDBC:LBRF1:1,2012-12-10T10:00:00Z,25.4840,-81.1330,1.5,8.9,11111222 
ENP,ioos.station.NOAA.NDBC:LBRF1:1,2012-12-10T11:00:00Z,25.4840,-81.1330,1.5,4.2,11111222 
ENP,ioos.station.NOAA.NDBC:LBRF1:1,2012-12-10T12:00:00Z,25.4840,-81.1330,1.5,2.5,11111222 
ENP,ioos.station.NOAA.NDBC:LBRF1:1,2012-12-10T13:00:00Z,25.4840,-81.1330,1.5,2.0,11111222 
ENP,ioos.station.NOAA.NDBC:LBRF1:1,2012-12-10T14:00:00Z,25.4840,-81.1330,1.5,2.0,11111222 
ENP,ioos.station.NOAA.NDBC:LBRF1:1,2012-12-10T15:00:00Z,25.4840,-81.1330,1.5,2.7,11111222 
ENP,ioos.station.NOAA.NDBC:LBRF1:1,2012-12-10T16:00:00Z,25.4840,-81.1330,1.5,9.5,11111222 
ENP,ioos.station.NOAA.NDBC:LBRF1:1,2012-12-10T17:00:00Z,25.4840,-81.1330,1.5,18.3,11111222 
ENP,ioos.station.NOAA.NDBC:LBRF1:1,2012-12-10T18:00:00Z,25.4840,-81.1330,1.5,21.0,11111222 
ENP,ioos.station.NOAA.NDBC:LBRF1:1,2012-12-10T19:00:00Z,25.4840,-81.1330,1.5,21.3,11111222 
ENP,ioos.station.NOAA.NDBC:LBRF1:1,2012-12-10T20:00:00Z,25.4840,-81.1330,1.5,19.3,11111222 
ENP,ioos.station.NOAA.NDBC:LBRF1:1,2012-12-10T21:00:00Z,25.4840,-81.1330,1.5,13.9,11111222 
ENP,ioos.station.NOAA.NDBC:LBRF1:1,2012-12-10T22:00:00Z,25.4840,-81.1330,1.5,8.4,11111222 
ENP,ioos.station.NOAA.NDBC:LBRF1:1,2012-12-10T23:00:00Z,25.4840,-81.1330,1.5,3.8,11111222 
ENP,ioos.station.NOAA.NDBC:LBRF1:1,2012-12-11T00:00:00Z,25.4840,-81.1330,1.5,2.6,11111222 
ENP,ioos.station.NOAA.NDBC:LBRF1:1,2012-12-11T01:00:00Z,25.4840,-81.1330,1.5,3.5,11111222 
ENP,ioos.station.NOAA.NDBC:LBRF1:1,2012-12-11T02:00:00Z,25.4840,-81.1330,1.5,14.1,11111222 
ENP,ioos.station.NOAA.NDBC:LBRF1:1,2012-12-11T03:00:00Z,25.4840,-81.1330,1.5,17.9,11111222 
ENP,ioos.station.NOAA.NDBC:LBRF1:1,2012-12-11T04:00:00Z,25.4840,-81.1330,1.5,22.5,11111222 
ENP,ioos.station.NOAA.NDBC:LBRF1:1,2012-12-11T05:00:00Z,25.4840,-81.1330,1.5,24.8,11111222 
ENP,ioos.station.NOAA.NDBC:LBRF1:1,2012-12-11T06:00:00Z,25.4840,-81.1330,1.5,25.3,11111222 
ENP,ioos.station.NOAA.NDBC:LBRF1:1,2012-12-11T07:00:00Z,25.4840,-81.1330,1.5,25.3,11111222 
ENP,ioos.station.NOAA.NDBC:LBRF1:1,2012-12-11T08:00:00Z,25.4840,-81.1330,1.5,24.4,11111222 
ENP,ioos.station.NOAA.NDBC:LBRF1:1,2012-12-11T09:00:00Z,25.4840,-81.1330,1.5,21.5,11111222 
ENP,ioos.station.NOAA.NDBC:LBRF1:1,2012-12-11T10:00:00Z,25.4840,-81.1330,1.5,18.2,11111222 
ENP,ioos.station.NOAA.NDBC:LBRF1:1,2012-12-11T11:00:00Z,25.4840,-81.1330,1.5,12.3,11111222 
ENP,ioos.station.NOAA.NDBC:LBRF1:1,2012-12-11T12:00:00Z,25.4840,-81.1330,1.5,6.9,11111222 
ENP,ioos.station.NOAA.NDBC:LBRF1:1,2012-12-11T13:00:00Z,25.4840,-81.1330,1.5,3.7,11111222 
ENP,ioos.station.NOAA.NDBC:LBRF1:1,2012-12-11T14:00:00Z,25.4840,-81.1330,1.5,2.9,11111222 
ENP,ioos.station.NOAA.NDBC:LBRF1:1,2012-12-11T15:00:00Z,25.4840,-81.1330,1.5,2.9,11111222 
ENP,ioos.station.NOAA.NDBC:LBRF1:1,2012-12-11T16:00:00Z,25.4840,-81.1330,1.5,4.9,11111222 
ENP,ioos.station.NOAA.NDBC:LBRF1:1,2012-12-11T17:00:00Z,25.4840,-81.1330,1.5,14.1,11111222 
ENP,ioos.station.NOAA.NDBC:LBRF1:1,2012-12-11T18:00:00Z,25.4840,-81.1330,1.5,20.6,11111222 
ENP,ioos.station.NOAA.NDBC:LBRF1:1,2012-12-11T19:00:00Z,25.4840,-81.1330,1.5,22.0,11111222 
ENP,ioos.station.NOAA.NDBC:LBRF1:1,2012-12-11T20:00:00Z,25.4840,-81.1330,1.5,22.2,11111222 
ENP,ioos.station.NOAA.NDBC:LBRF1:1,2012-12-11T21:00:00Z,25.4840,-81.1330,1.5,21.2,11111222 
ENP,ioos.station.NOAA.NDBC:LBRF1:1,2012-12-11T22:00:00Z,25.4840,-81.1330,1.5,18.6,11111222 
ENP,ioos.station.NOAA.NDBC:LBRF1:1,2012-12-12T00:00:00Z,25.4840,-81.1330,1.5,7.4,11111222 
ENP,ioos.station.NOAA.NDBC:LBRF1:1,2012-12-12T01:00:00Z,25.4840,-81.1330,1.5,5.2,11111222 
ENP,ioos.station.NOAA.NDBC:LBRF1:1,2012-12-12T02:00:00Z,25.4840,-81.1330,1.5,8.3,11111222 
ENP,ioos.station.NOAA.NDBC:LBRF1:1,2012-12-12T03:00:00Z,25.4840,-81.1330,1.5,16.1,11111222 